Weather History for Ottumwa, IA

Change the Weather History Date:

Saturday, January 19, 2013

  Actual Average Record
Temperature  
Mean Temperature 38 °F 22 °F  
Max Temperature 56 °F 31 °F 60 °F (1952)
Min Temperature 20 °F 13 °F -21 °F (1936)
Degree Days  
Heating Degree Days 27 43  
Month to date heating degree days 672 811  
Since 1 July heating degree days 2981 3316  
Cooling Degree Days 0 0  
Month to date cooling degree days 0 0  
Year to date cooling degree days 0 0  
Moisture  
Dew Point 27 °F    
Average Humidity 52    
Maximum Humidity 68    
Minimum Humidity 35    
Precipitation  
Precipitation 0.00 in 0.02 in 1.31 in (1907)
Month to date precipitation 0.13 0.58  
Year to date precipitation 0.13 0.58  
Sea Level Pressure  
Sea Level Pressure 29.96 in    
Wind  
Wind Speed 17 mph (West)    
Max Wind Speed 31 mph    
Max Gust Speed 40 mph    
Visibility 10 miles    
Events      
T = Trace of Precipitation, MM = Missing Value Source: NWS Daily Summary

Daily Weather History Graph

Daily Weather History Graph

Search for Another Location

Airport:

Trip Planner

Search our weather history database for the weather conditions in past years. The results will help you decide how hot, cold, wet, or windy it might be!

Date:

Astronomy

Jan. 19, 2013 Rise Set
Actual Time 7:30 AM CST 5:11 PM CST
Civil Twilight 7:00 AM CST 5:41 PM CST
Nautical Twilight 6:26 AM CST 6:14 PM CST
Astronomical Twilight 5:54 AM CST 6:47 PM CST
Moon 11:38 AM CST (1/19) 1:04 AM CST (1/19)
Length of Visible Light 10h 40m
Length of Day
9h 40m
First Quarter, 57% of the Moon is Illuminated
Jan 19
First Quarter
Jan 26
Full
Feb 3
Last Quarter
Feb 10
New
Feb 17
First Quarter

Hourly Weather History & Observations

Time (CST) Temp. Windchill Dew Point Humidity Pressure Visibility Wind Dir Wind Speed Gust Speed Precip Events Conditions
12:53 AM 41.0 °F 34.3 °F 28.9 °F 62% 29.92 in 10.0 mi SSW 11.5 mph - N/A   Clear
1:53 AM 39.9 °F 33.4 °F 28.9 °F 65% 29.92 in 10.0 mi SSW 10.4 mph - N/A   Clear
2:53 AM 39.9 °F 32.1 °F 28.9 °F 65% 29.90 in 10.0 mi SSW 13.8 mph - N/A   Clear
3:53 AM 41.0 °F 33.5 °F 28.9 °F 62% 29.88 in 10.0 mi SW 13.8 mph - N/A   Clear
4:53 AM 41.0 °F 32.5 °F 28.9 °F 62% 29.87 in 10.0 mi SW 17.3 mph 24.2 mph N/A   Clear
5:53 AM 41.0 °F 32.5 °F 28.9 °F 62% 29.86 in 10.0 mi SW 17.3 mph 25.3 mph N/A   Clear
6:53 AM 39.9 °F 31.8 °F 28.9 °F 65% 29.86 in 10.0 mi SW 15.0 mph - N/A   Clear
7:53 AM 39.0 °F 31.0 °F 28.9 °F 67% 29.86 in 10.0 mi SW 13.8 mph - N/A   Clear
8:53 AM 42.1 °F 33.9 °F 30.0 °F 62% 29.86 in 10.0 mi SW 17.3 mph 24.2 mph N/A   Clear
9:53 AM 44.1 °F 36.5 °F 30.9 °F 60% 29.89 in 10.0 mi West 17.3 mph 24.2 mph N/A   Clear
10:53 AM 45.0 °F 37.9 °F 30.9 °F 58% 29.89 in 10.0 mi WSW 16.1 mph - N/A   Clear
11:53 AM 48.9 °F - 30.0 °F 48% 29.87 in 10.0 mi WSW 16.1 mph 24.2 mph N/A   Clear
12:53 PM 53.1 °F - 30.0 °F 41% 29.84 in 10.0 mi WSW 13.8 mph - N/A   Clear
1:53 PM 55.9 °F - 28.9 °F 36% 29.84 in 10.0 mi West 17.3 mph 23.0 mph N/A   Clear
2:53 PM 55.0 °F - 28.9 °F 37% 29.87 in 10.0 mi West 19.6 mph 25.3 mph N/A   Clear
3:53 PM 52.0 °F - 28.9 °F 41% 29.90 in 10.0 mi WNW 17.3 mph 27.6 mph N/A   Clear
4:53 PM 48.9 °F - 30.0 °F 48% 29.95 in 10.0 mi WNW 15.0 mph 20.7 mph N/A   Clear
5:53 PM 46.0 °F 39.3 °F 30.9 °F 56% 30.00 in 10.0 mi WNW 16.1 mph 26.5 mph N/A   Clear
6:53 PM 43.0 °F 35.4 °F 30.0 °F 60% 30.03 in 10.0 mi NW 16.1 mph - N/A   Clear
7:53 PM 42.1 °F 32.8 °F 30.0 °F 62% 30.06 in 10.0 mi NW 21.9 mph 28.8 mph N/A   Mostly Cloudy
8:53 PM 39.0 °F 28.3 °F 25.0 °F 57% 30.09 in 10.0 mi NW 24.2 mph 39.1 mph N/A   Scattered Clouds
9:53 PM 34.0 °F 21.5 °F 17.1 °F 50% 30.13 in 10.0 mi NW 24.2 mph 32.2 mph N/A   Clear
10:53 PM 24.8 °F 8.7 °F 15.8 °F 69% 30.19 in 10.0 mi NNW 26.5 mph 36.8 mph N/A   Mostly Cloudy
11:09 PM 24.8 °F 8.7 °F 15.8 °F 69% 30.20 in 10.0 mi NNW 26.5 mph 32.2 mph N/A   Mostly Cloudy
11:53 PM 21.0 °F 5.0 °F 10.9 °F 65% 30.25 in 10.0 mi NNW 21.9 mph - N/A   Clear